Weather in Kushva

Russia / Sverdlovsk Oblast     58°16′57″N   59°45′52″E
temp.,
°C
wind,
m/s
gust,
m/s
humid.,
%
clouds,
%
prec.,
mm/h
press.,
hPa
HPBL,
m
23 may, mon
mon2323:00−1sw26955 0.1 99787
02:00−2ssw3109499 0.0 998291
05:00−2ssw310955 0.0 999326
08:00+4sw48735 0.0 9991108
11:00+6ssw475799 0.1 10001579
14:00+8ssw465490 0.1 10001512
17:00+10sse475479 0.2 10001612
20:00+8sse387396 0.1 1001682
24 may, tue
tue2423:00+5sse2393100 0.4 100276
02:00+5s119796 0.4 100327
05:00+5ssw119598 0.4 100514
08:00+8ssw128256 0.1 1006439
11:00+11s236279 0.4 10071328
14:00+12sse3556100 0.3 10081658
17:00+12sse2568100 0.3 1009819
20:00+11e2374100 0.0 100992
25 may, wed
wed2523:00+8ese2490100 0.0 101086
02:00+9ese1599100 1.7 1010169
05:00+9ne31199100 6.1 1007576
08:00+11e3999100 0.6 1006576
11:00+15se3683100 0.6 1006557
14:00+17sse61272100 1.8 10051343
17:00+14sw3792100 3.6 1005334
20:00+12ne249893 1.2 1004110
26 may, thu
thu2623:00+13sse41393100 2.2 1003754
02:00+10sw410938 2.4 1005434
05:00+8wsw2594100 2.4 1007385
08:00+8wnw2496100 2.0 1006298
11:00+8sse0198100 19.1 100687
14:00+7wsw3794100 10.1 1006500
17:00+9wsw588174 10.6 1006988
20:00+8w49705 0.0 10061035
27 may, fri
fri2723:00+4sw38905 0.0 1007196
02:00+5wsw5985100 0.1 10081100
05:00+4wsw4118488 0.1 1008777
08:00+6wsw5108399 0.0 1009940
11:00+9sw5865100 0.1 10101325
14:00+12ssw585695 0.2 10091788
17:00+12s5115997 0.3 10091666
20:00+10s51367100 0.0 10081526